COSMOS 2159

导读

COSMOS 2159是独联体(CIS)"宇宙"系列卫星,1991年9月28日发射入轨。冷战末期,该系列多承担军事侦察、电子情报收集任务,用于监测对手通信与雷达信号,服务战略安全需求。作为苏联解体前后航天部署的组成部分,延续了苏联空间技术积累,体现了后冷战时代独联体在航天侦察领域的延续性,是冷战太空对抗背景下的产物,目前已完成使命再入大气层销毁。

基本信息
目录编号:
21730
目录名称:
COSMOS 2159
国际标识:
1991-068C
轨道中心:
EARTH
卫星名称:
COSMOS 2159
卫星全名:
--
卫星状态:
在轨 (已飞行12770 天)
发射日期:
1991-09-28 UTC
国别 :
俄罗斯(独联体) (CIS)
星等 :
--
该卫星已列入 空间交会检测服务 Space Conjunction Data Service (SCDS) ,当前飞行风险评估等级: 无高风险
轨道信息
数据来源 国际轨道数据 AOE轨道数据
星历时间 2026-09-14T11:42:00+0800
5小时前
查看轨道信息
2026-09-11T07:00:00+0800
3天前
查看轨道信息
半长轴 7776.215km 7776.205km
偏心率 0.0015049 0.0014967
轨道倾角 82.582° 82.581°
近地点辐角 74.655° 81.075°
升交点赤经 223.206° 225.256°
平近点角 297.991° 132.959°
近地点 1386.375km 1386.429km
远地点 1409.781km 1409.707km
周期 113.740分钟 113.739分钟
每日圈数 12.660486 12.660512
详细信息
使用方式:
暂无
2D轨道图
3D轨道图
轨道高度分析图
轨道倾角分析图
轨道综合分析图
查看轨道综合分析图
交会数据列表
事件ID 空间交会对象 最接近时刻(TCA) 交会距离 交会风险概率(CRP) 交会风险指数(CRI) 操作
CDM_260915-151202-173002-218324
2026-09-15T
15:12:46+0000
2.439 km
极远距离
1.065409E-6 低风险 0.36
与全量物体交会距离演化趋势 订阅飞行安全评估服务
与全量物体交会风险概率演化趋势 订阅飞行安全评估服务